Location: Deneb Observatory
(47.2267°N, 100.4953°W)
Time: 16:47:59
(UTC-05:00)

Iridium 66 - Visible Passes

Search period start: 02 September 2015 00:00
Search period end: 12 September 2015 00:00
Orbit: 776 x 779 km, 86.4° (Epoch: 02 September)

Date Brightness Start Highest point End Pass type
(mag) Time Alt. Az. Time Alt. Az. Time Alt. Az.
02 Sep 8.0 01:02:37 10° NNW 01:05:51 20° WNW 01:05:51 20° WNW visible
02 Sep 7.0 22:47:45 10° NNE 22:51:56 32° ENE 22:51:56 32° ENE visible
03 Sep 7.4 00:28:27 10° NNW 00:32:25 33° WNW 00:32:25 33° WNW visible
03 Sep 7.6 22:14:51 10° NNE 22:18:31 19° ENE 22:18:31 19° ENE visible
03 Sep 6.6 23:54:37 10° N 23:58:59 54° NW 23:58:59 54° NW visible
04 Sep 8.0 21:43:02 10° NE 21:44:27 11° ENE 21:45:05 11° ENE visible
04 Sep 6.2 23:21:02 10° N 23:25:33 65° NNE 23:25:33 65° NNE visible
05 Sep 8.4 01:03:25 10° NW 01:06:01 15° WNW 01:06:01 15° WNW visible
05 Sep 6.6 22:47:38 10° N 22:52:08 43° ENE 22:52:08 43° ENE visible
06 Sep 7.8 00:28:52 10° NNW 00:32:36 25° WNW 00:32:36 25° WNW visible
06 Sep 7.2 22:14:30 10° NNE 22:18:44 26° ENE 22:18:44 26° ENE visible
06 Sep 7.0 23:54:51 10° NNW 23:59:12 42° WNW 23:59:12 42° WNW visible
07 Sep 7.7 21:41:51 10° NNE 21:44:53 16° ENE 21:45:20 16° ENE visible
07 Sep 6.2 23:21:08 10° N 23:25:48 68° NW 23:25:48 68° NW visible
08 Sep 8.7 01:05:06 10° WNW 01:06:16 11° WNW 01:06:16 11° WNW visible
08 Sep 6.1 22:47:36 10° N 22:52:24 60° ENE 22:52:24 60° ENE visible
09 Sep 8.2 00:29:27 10° NW 00:32:53 19° WNW 00:32:53 19° WNW visible
09 Sep 6.7 22:14:18 10° NNE 22:19:01 36° ENE 22:19:01 36° ENE visible
09 Sep 7.5 23:55:11 10° NNW 23:59:30 31° WNW 23:59:30 31° WNW visible
10 Sep 7.3 21:41:19 10° NNE 21:45:14 22° ENE 21:45:38 21° ENE visible
10 Sep 6.6 23:21:18 10° NNW 23:26:07 54° WNW 23:26:07 54° WNW visible
11 Sep 7.9 21:09:05 10° NE 21:11:13 13° ENE 21:12:17 12° ENE visible
11 Sep 5.9 22:47:39 10° N 22:52:45 84° NNE 22:52:45 84° NNE visible
